Location: Newark
(45.4422°N, 16.2769°E)
Time: 01:10:18
(UTC+00:00)

Tiros 1 despin weight - Pass Details

Date: 21 December 2019
Orbit: 593 x 643 km, 48.2° (Epoch: 17 January)

Event Time Altitude Azimuth Distance (km) Brightness Sun altitude
Rises 01:05:52 0° 252° (WSW) 2,919 - -55.2°
Reaches altitude 10° 01:08:12 10° 253° (WSW) 2,006 - -54.9°
Maximum altitude 01:12:50 85° 343° (NNW) 631 - -54.1°
Drops below altitude 10° 01:17:24 10° 71° (ENE) 1,980 - -53.4°
Sets 01:19:41 0° 72° (ENE) 2,878 - -53.0°
